Weather History for Sarasota, FL

Change the Weather History Date:

Saturday, September 14, 2013

  Actual Average Record
Temperature  
Mean Temperature 83 °F 82 °F  
Max Temperature 90 °F 89 °F 95 °F (1997)
Min Temperature 75 °F 74 °F 64 °F (1913)
Degree Days  
Heating Degree Days 0 0  
Month to date heating degree days 0 0  
Since 1 July heating degree days 0 0  
Cooling Degree Days 18 17  
Month to date cooling degree days 251 238  
Year to date cooling degree days 2751 2535  
Growing Degree Days 32 (Base 50)    
Moisture  
Dew Point 72 °F    
Average Humidity 73    
Maximum Humidity 94    
Minimum Humidity 55    
Precipitation  
Precipitation 0.00 in 0.23 in 7.95 in (2001)
Month to date precipitation 2.55 4.08  
Year to date precipitation 41.16 42.41  
Sea Level Pressure  
Sea Level Pressure 29.89 in    
Wind  
Wind Speed 5 mph (WNW)    
Max Wind Speed 18 mph    
Max Gust Speed 24 mph    
Visibility 10 miles    
Events Thunderstorm    
T = Trace of Precipitation, MM = Missing Value Source: NWS Daily Summary

Daily Weather History Graph

Daily Weather History Graph

Search for Another Location

Airport:

Trip Planner

Search our weather history database for the weather conditions in past years. The results will help you decide how hot, cold, wet, or windy it might be!

Date:

Astronomy

Sep. 14, 2013 Rise Set
Actual Time 7:15 AM EDT 7:35 PM EDT
Civil Twilight 6:51 AM EDT 7:59 PM EDT
Nautical Twilight 6:24 AM EDT 8:26 PM EDT
Astronomical Twilight 5:56 AM EDT 8:53 PM EDT
Moon 3:56 PM EDT (9/14) 2:07 AM EDT (9/14)
Length of Visible Light 13h 07m
Length of Day
12h 20m
Waxing Gibbous, 72% of the Moon is Illuminated
Sep 14
Waxing Gibbous
Sep 19
Full
Sep 26
Last Quarter
Oct 4
New
Oct 11
First Quarter

Hourly Weather History & Observations

Time (EDT) Temp. Heat Index Dew Point Humidity Pressure Visibility Wind Dir Wind Speed Gust Speed Precip Events Conditions
12:53 AM 79.0 °F - 73.9 °F 84% 29.85 in 10.0 mi Calm Calm - N/A   Clear
1:53 AM 78.1 °F - 73.9 °F 87% 29.84 in 10.0 mi Calm Calm - N/A   Clear
2:53 AM 77.0 °F - 73.0 °F 88% 29.84 in 10.0 mi Calm Calm - N/A   Clear
3:53 AM 77.0 °F - 73.9 °F 90% 29.84 in 10.0 mi Calm Calm - N/A   Clear
4:53 AM 75.9 °F - 73.0 °F 91% 29.84 in 10.0 mi Calm Calm - N/A   Clear
5:53 AM 77.0 °F - 73.0 °F 88% 29.84 in 10.0 mi Calm Calm - N/A   Clear
6:53 AM 75.9 °F - 73.0 °F 91% 29.86 in 10.0 mi Calm Calm - N/A   Clear
7:53 AM 78.1 °F - 75.0 °F 90% 29.88 in 10.0 mi Calm Calm - N/A   Clear
8:53 AM 81.0 °F 86.2 °F 73.9 °F 79% 29.89 in 10.0 mi ESE 4.6 mph - N/A   Clear
9:53 AM 84.9 °F 90.7 °F 72.0 °F 65% 29.91 in 10.0 mi Calm Calm - N/A   Clear
10:53 AM 87.1 °F 92.0 °F 70.0 °F 57% 29.91 in 10.0 mi Calm Calm - N/A   Clear
11:53 AM 88.0 °F 93.8 °F 71.1 °F 57% 29.92 in 10.0 mi WSW 8.1 mph - N/A   Clear
12:53 PM 90.0 °F 96.9 °F 72.0 °F 55% 29.92 in 10.0 mi WSW 9.2 mph - N/A   Clear
1:53 PM 89.1 °F 97.0 °F 73.0 °F 59% 29.90 in 10.0 mi West 9.2 mph - N/A   Clear
2:53 PM 89.1 °F 97.0 °F 73.0 °F 59% 29.89 in 10.0 mi West 12.7 mph - N/A   Partly Cloudy
3:53 PM 89.1 °F 96.0 °F 72.0 °F 57% 29.88 in 10.0 mi West 11.5 mph - N/A   Clear
4:53 PM 89.1 °F 96.0 °F 72.0 °F 57% 29.88 in 10.0 mi WNW 10.4 mph - N/A   Clear
5:53 PM 88.0 °F 95.6 °F 73.0 °F 61% 29.89 in 10.0 mi WNW 10.4 mph - N/A   Clear
6:53 PM 87.1 °F 94.5 °F 73.0 °F 63% 29.90 in 10.0 mi WNW 8.1 mph - N/A   Clear
7:53 PM 82.9 °F 88.8 °F 73.0 °F 72% 29.91 in 10.0 mi NW 6.9 mph - N/A   Clear
8:53 PM 84.0 °F 90.2 °F 73.0 °F 69% 29.94 in 10.0 mi Calm Calm - N/A   Partly Cloudy
9:53 PM 80.1 °F 82.3 °F 66.9 °F 64% 29.96 in 10.0 mi NE 9.2 mph 19.6 mph N/A Thunderstorm Mostly Cloudy
10:36 PM 78.8 °F - 69.8 °F 74% 29.95 in 10.0 mi NE 4.6 mph - N/A   Clear
10:53 PM 78.1 °F - 70.0 °F 76% 29.96 in 10.0 mi NE 5.8 mph - N/A   Clear
11:53 PM 75.9 °F - 70.0 °F 82% 29.96 in 10.0 mi Calm Calm - N/A   Clear